Flag for Algeria Weather past 2 weeks in Oran, Algeria

Now
82 °F

Passing clouds.


Feels Like: 88 °F
Forecast: 72 / 83 °F
Wind: 16 mph from North

Location: Oran / Es Senia

Current Time: Jul 26, 2014 at 4:30:01 PM

Latest Report: Jul 26, 2014 at 4:00 PM


Visibility: N/A

Pressure: 29.92 "Hg

Humidity: 74%

Dew point: 73 °F

Location of OranLocation

Historic Weather in Oran — Graph

°F

Oran temperature yesterday

Maximum temperature yesterday: 91 °F (at 1:00 PM)
Minimum temperature yesterday: 73 °F (at 3:30 AM)
Average temperature yesterday: 79 °F

Past Weeks' High & Low Weather Summary

 TemperatureHumidityPressure
High100 °F (Jul 18, 4:00 PM)100% (Jul 26, 7:00 AM)30.09 "Hg (Jul 26, 7:00 AM)
Low63 °F (Jul 21, 4:00 AM)12% (Jul 19, 4:00 PM)29.80 "Hg (Jul 23, 6:00 PM)
Average79 °F63%29.96 "Hg
* Reported Jul 11 3:00 PM — Jul 26 3:30 PM, Oran, Weather by CustomWeather, © 2014

Note: Actual official high and low records may vary slightly from our data, if they occured in-between our weather recording intervals... More about our weather records

Advertising

Oran weather history for previous 24 hours

 ConditionsComfort  
Time TempWeatherWind HumidityBarometerVisibility
3:30 PM
Jul 26
82 °FPassing clouds.16 mph74%29.92 "HgN/A
3:00 PM84 °FPassing clouds.18 mph70%29.92 "HgN/A
2:30 PM84 °FPassing clouds.16 mph70%29.92 "HgN/A
2:00 PM82 °FPassing clouds.16 mph74%29.92 "HgN/A
1:30 PM82 °FPassing clouds.15 mph74%29.95 "HgN/A
1:00 PM82 °FPassing clouds.14 mph74%29.95 "HgN/A
12:30 PM82 °FPassing clouds.14 mph70%29.95 "HgN/A
12:00 PM84 °FPassing clouds.12 mph66%29.95 "HgN/A
11:30 AM84 °FPassing clouds.5 mph62%29.95 "HgN/A
11:00 AM82 °FPassing clouds.3 mph66%29.95 "HgN/A
10:30 AM81 °FPassing clouds.3 mph70%29.95 "HgN/A
10:00 AM79 °FPassing clouds.3 mph74%29.95 "HgN/A
9:30 AM77 °FPassing clouds.3 mph79%29.95 "HgN/A
9:00 AM75 °FSunny.No wind83%29.95 "Hg10 mi
8:30 AM73 °FSunny.6 mph89%29.95 "Hg10 mi
7:30 AM72 °FSunny.6 mph94%29.95 "Hg10 mi
7:00 AM70 °FSunny.No wind100%29.95 "Hg10 mi
6:30 AM70 °FSunny.6 mph94%29.92 "Hg10 mi
6:00 AM70 °FSunny.6 mph94%29.89 "Hg10 mi
5:30 AM70 °FClear.6 mph94%29.89 "Hg10 mi
5:00 AM70 °FClear.5 mph94%29.89 "Hg10 mi
4:30 AM70 °FClear.2 mph94%29.89 "Hg10 mi
4:00 AM72 °FClear.5 mph88%29.89 "Hg10 mi
3:30 AM72 °FClear.5 mph83%29.89 "Hg10 mi
3:00 AM72 °FClear.6 mph83%29.89 "Hg10 mi
2:30 AM72 °FClear.6 mph83%29.89 "Hg10 mi
2:00 AM73 °FClear.2 mph78%29.89 "Hg10 mi
1:30 AM72 °FClear.5 mph83%29.89 "Hg10 mi
1:00 AM72 °FClear.7 mph83%29.89 "Hg10 mi
12:30 AM73 °FClear.7 mph83%29.89 "Hg10 mi
12:00 AM73 °FClear.2 mph83%29.89 "Hg10 mi
11:30 PM
Jul 25
73 °FClear.No wind83%29.86 "Hg10 mi
11:00 PM73 °FClear.No wind83%29.86 "Hg10 mi
10:30 PM75 °FClear.No wind78%29.86 "Hg10 mi
10:00 PM75 °FClear.2 mph78%29.86 "Hg10 mi
9:30 PM75 °FPassing clouds.3 mph78%29.83 "HgN/A
9:00 PM75 °FPassing clouds.6 mph78%29.83 "HgN/A
8:30 PM75 °FPassing clouds.2 mph78%29.83 "HgN/A
8:00 PM77 °FPassing clouds.7 mph74%29.83 "HgN/A
7:30 PM79 °FSunny.9 mph65%29.80 "Hg10 mi
7:00 PM79 °FSunny.9 mph65%29.80 "Hg10 mi
6:30 PM79 °FSunny.12 mph65%29.80 "Hg10 mi
6:00 PM81 °FSunny.12 mph62%29.80 "Hg10 mi
5:30 PM84 °FSunny.12 mph48%29.80 "Hg10 mi
5:00 PM84 °FSunny.9 mph48%29.80 "Hg10 mi
4:30 PM82 °FBroken clouds.9 mph51%29.80 "HgN/A
4:00 PM82 °FBroken clouds.9 mph51%29.80 "HgN/A
Weather by CustomWeather, © 2014

See weather overviewHow to use our weather pages